| time (UTC) | temp F | wind direction | speed knots | gust knots | rain 1hr in | rain 24hr in | rain mn in | humidity % | barometer mb |
| 20260507135016 | 55 | 291 | 4.3 | 7.8 | 126.15 | 0.00 | 0.01 | 62 | 1008.4 |
| 20260507134516 | 55 | 285 | 2.6 | 9.6 | 126.15 | 0.00 | 0.01 | 66 | 1008.4 |
| 20260507134016 | 56 | 277 | 7.0 | 9.6 | 126.15 | 0.00 | 0.01 | 64 | 1008.4 |
| 20260507133516 | 56 | 284 | 7.0 | 8.7 | 126.15 | 0.00 | 0.01 | 63 | 1008.3 |
| 20260507133016 | 56 | 304 | 3.5 | 6.1 | 126.15 | 0.00 | 0.01 | 61 | 1008.2 |
| 20260507132517 | 55 | 309 | 2.6 | 7.0 | 126.15 | 0.00 | 0.01 | 63 | 1008.3 |
| 20260507132016 | 55 | 266 | 0.9 | 6.1 | 126.15 | 0.00 | 0.01 | 67 | 1008.4 |
| 20260507131516 | 55 | 349 | 1.7 | 4.3 | 126.15 | 0.00 | 0.01 | 67 | 1008.5 |
| 20260507131016 | 54 | 326 | 1.7 | 5.2 | 126.15 | 0.00 | 0.01 | 67 | 1008.6 |
| 20260507130516 | 54 | 290 | 3.5 | 6.1 | 126.15 | 0.00 | 0.01 | 67 | 1008.7 |
| 20260507130016 | 54 | 304 | 1.7 | 8.7 | 126.15 | 0.00 | 0.01 | 67 | 1008.7 |
| 20260507125516 | 53 | 280 | 4.3 | 10.4 | 126.15 | 0.00 | 0.01 | 68 | 1008.7 |
| 20260507125016 | 53 | 291 | 1.7 | 6.1 | 126.15 | 0.00 | 0.01 | 72 | 1008.7 |
| 20260507124516 | 53 | 288 | 3.5 | 7.0 | 126.15 | 0.00 | 0.01 | 70 | 1008.7 |
| 20260507124016 | 52 | 285 | 2.6 | 4.3 | 126.15 | 0.00 | 0.01 | 76 | 1008.8 |
| 20260507123516 | 52 | 264 | 2.6 | 6.1 | 126.15 | 0.00 | 0.01 | 73 | 1008.7 |
| 20260507123016 | 51 | 295 | 0.9 | 6.1 | 126.15 | 0.00 | 0.01 | 77 | 1008.8 |
| 20260507122015 | 51 | 264 | 1.7 | 4.3 | 126.15 | 0.00 | 0.01 | 79 | 1008.9 |
| 20260507121517 | 50 | 264 | 0.9 | 5.2 | 126.15 | 0.00 | 0.01 | 80 | 1008.9 |
| 20260507121015 | 50 | 308 | 3.5 | 7.0 | 126.15 | 0.00 | 0.01 | 80 | 1009.0 |
| 20260507120016 | 50 | 277 | 0.9 | 3.5 | 126.15 | 0.00 | 0.01 | 83 | 1008.9 |
| 20260507115515 | 49 | 264 | 1.7 | 3.5 | 126.15 | 0.00 | 0.01 | 83 | 1008.8 |
| 20260507115015 | 49 | 335 | 0.9 | 1.7 | 126.15 | 0.00 | 0.01 | 84 | 1009.0 |
| 20260507114518 | 49 | 17 | 0.9 | 3.5 | 126.15 | 0.00 | 0.01 | 85 | 1008.8 |
| 20260507114015 | 49 | 35 | 0.0 | 4.3 | 126.15 | 0.00 | 0.01 | 85 | 1008.7 |
| 20260507113515 | 49 | 246 | 1.7 | 2.6 | 126.15 | 0.00 | 0.01 | 85 | 1008.7 |
| 20260507113016 | 49 | 288 | 1.7 | 7.0 | 126.15 | 0.00 | 0.01 | 85 | 1008.8 |
| 20260507112516 | 49 | 290 | 0.9 | 1.7 | 126.15 | 0.00 | 0.01 | 86 | 1008.7 |
| 20260507112015 | 49 | 200 | 0.0 | 2.6 | 126.15 | 0.00 | 0.01 | 87 | 1008.7 |
| 20260507111516 | 48 | 267 | 0.9 | 1.7 | 126.15 | 0.00 | 0.01 | 87 | 1008.6 |
| 20260507111018 | 48 | 255 | 0.0 | 2.6 | 126.15 | 0.00 | 0.01 | 88 | 1008.6 |
| 20260507110515 | 48 | 0 | 0.0 | 0.0 | 126.15 | 0.00 | 0.01 | 89 | 1008.7 |
| 20260507110016 | 48 | 184 | 0.0 | 1.7 | 126.15 | 0.00 | 0.01 | 89 | 1008.6 |
| 20260507105515 | 48 | 0 | 0.9 | 0.0 | 126.15 | 0.00 | 0.01 | 88 | 1008.6 |
| 20260507105015 | 48 | 270 | 0.0 | 3.5 | 126.15 | 0.00 | 0.01 | 88 | 1008.6 |
| 20260507104518 | 48 | 307 | 1.7 | 0.9 | 126.15 | 0.00 | 0.01 | 87 | 1008.5 |
| 20260507104016 | 48 | 264 | 0.0 | 1.7 | 126.15 | 0.00 | 0.01 | 88 | 1008.3 |
| 20260507103515 | 48 | 335 | 0.0 | 0.9 | 126.15 | 0.00 | 0.01 | 87 | 1008.2 |
| 20260507103016 | 48 | 187 | 0.0 | 1.7 | 126.15 | 0.00 | 0.01 | 88 | 1008.0 |
| 20260507102015 | 48 | 269 | 0.9 | 4.3 | 126.15 | 0.00 | 0.01 | 88 | 1007.9 |
| 20260507101518 | 48 | 273 | 1.7 | 4.3 | 126.15 | 0.00 | 0.01 | 88 | 1008.1 |
| 20260507101016 | 47 | 280 | 2.6 | 4.3 | 126.15 | 0.00 | 0.01 | 88 | 1007.9 |
| 20260507100515 | 48 | 267 | 0.9 | 2.6 | 126.15 | 0.00 | 0.01 | 89 | 1007.9 |
| 20260507100016 | 48 | 257 | 0.0 | 4.3 | 126.15 | 0.00 | 0.01 | 89 | 1008.0 |
| 20260507095516 | 48 | 245 | 0.9 | 2.6 | 126.15 | 0.00 | 0.01 | 89 | 1007.9 |
| 20260507095015 | 48 | 276 | 0.0 | 4.3 | 126.15 | 0.00 | 0.01 | 89 | 1007.9 |
| 20260507094516 | 48 | 266 | 2.6 | 3.5 | 126.15 | 0.00 | 0.01 | 89 | 1008.0 |
| 20260507094015 | 48 | 308 | 2.6 | 4.3 | 126.15 | 0.00 | 0.01 | 89 | 1008.0 |
| 20260507093518 | 48 | 269 | 2.6 | 4.3 | 126.15 | 0.00 | 0.01 | 89 | 1008.3 |
| 20260507093016 | 48 | 278 | 0.9 | 3.5 | 126.15 | 0.00 | 0.01 | 89 | 1008.3 |
| 20260507092515 | 48 | 298 | 1.7 | 3.5 | 126.15 | 0.00 | 0.01 | 89 | 1008.1 |
| 20260507092016 | 48 | 281 | 2.6 | 6.1 | 126.15 | 0.00 | 0.01 | 89 | 1008.4 |
| 20260507091516 | 48 | 284 | 2.6 | 6.1 | 126.15 | 0.00 | 0.01 | 88 | 1008.3 |
| 20260507091016 | 48 | 257 | 0.9 | 2.6 | 126.15 | 0.00 | 0.01 | 89 | 1008.3 |
| 20260507090515 | 48 | 266 | 0.0 | 4.3 | 126.15 | 0.00 | 0.01 | 90 | 1008.2 |
| 20260507090016 | 48 | 285 | 0.9 | 4.3 | 126.15 | 0.00 | 0.01 | 90 | 1008.3 |
| 20260507085515 | 48 | 231 | 0.9 | 4.3 | 126.15 | 0.00 | 0.01 | 90 | 1008.5 |
| 20260507085015 | 48 | 284 | 1.7 | 6.1 | 126.15 | 0.00 | 0.01 | 90 | 1008.4 |
| 20260507084519 | 49 | 294 | 3.5 | 6.1 | 126.15 | 0.00 | 0.01 | 90 | 1008.2 |
| 20260507083016 | 49 | 307 | 0.0 | 1.7 | 126.15 | 0.00 | 0.01 | 90 | 1008.3 |
| 20260507082015 | 50 | 0 | 0.0 | 0.0 | 126.15 | 0.00 | 0.01 | 89 | 1008.1 |
| 20260507081516 | 50 | 0 | 0.0 | 0.0 | 126.15 | 0.00 | 0.01 | 89 | 1008.1 |
| 20260507081015 | 50 | 312 | 0.0 | 1.7 | 126.15 | 0.00 | 0.01 | 88 | 1008.2 |
| 20260507080017 | 50 | 293 | 0.0 | 4.3 | 126.15 | 0.00 | 0.01 | 87 | 1008.0 |
| 20260507075515 | 50 | 345 | 0.0 | 1.7 | 126.15 | 0.00 | 0.01 | 86 | 1007.8 |
| 20260507075015 | 50 | 257 | 0.9 | 6.1 | 126.15 | 0.00 | 0.01 | 85 | 1007.9 |
| 20260507074518 | 50 | 307 | 3.5 | 7.0 | 126.15 | 0.00 | 0.01 | 84 | 1008.0 |
| 20260507074015 | 50 | 295 | 3.5 | 7.8 | 126.15 | 0.00 | 0.01 | 87 | 1008.0 |
| 20260507073515 | 51 | 305 | 1.7 | 6.1 | 126.15 | 0.00 | 0.01 | 86 | 1008.1 |
| 20260507073016 | 51 | 262 | 2.6 | 4.3 | 126.15 | 0.00 | 0.01 | 88 | 1008.3 |
| 20260507072515 | 51 | 267 | 1.7 | 3.5 | 126.15 | 0.00 | 0.01 | 88 | 1008.3 |
| 20260507072015 | 51 | 308 | 0.9 | 3.5 | 126.15 | 0.00 | 0.01 | 88 | 1007.8 |
| 20260507071516 | 51 | 295 | 2.6 | 2.6 | 126.15 | 0.00 | 0.01 | 87 | 1007.7 |
| 20260507071015 | 51 | 284 | 0.9 | 5.2 | 126.15 | 0.00 | 0.01 | 87 | 1007.6 |
| 20260507070515 | 51 | 267 | 3.5 | 4.3 | 126.15 | 0.00 | 0.01 | 88 | 1007.6 |
| 20260507070016 | 51 | 301 | 2.6 | 6.1 | 126.15 | 0.00 | 0.01 | 88 | 1007.5 |
| 20260507065515 | 51 | 318 | 0.0 | 2.6 | 126.15 | 0.00 | 0.01 | 89 | 1007.4 |
| 20260507065015 | 51 | 252 | 1.7 | 3.5 | 126.15 | 0.00 | 0.01 | 89 | 1007.6 |
| 20260507064516 | 51 | 293 | 0.0 | 7.8 | 126.15 | 0.00 | 0.01 | 90 | 1007.5 |
| 20260507064016 | 52 | 312 | 4.3 | 3.5 | 126.15 | 0.00 | 0.01 | 90 | 1007.1 |
| 20260507063515 | 52 | 305 | 0.0 | 3.5 | 126.15 | 0.00 | 0.01 | 92 | 1007.2 |
| 20260507063016 | 52 | 273 | 2.6 | 5.2 | 126.15 | 0.00 | 0.01 | 92 | 1007.4 |
| 20260507062515 | 52 | 174 | 1.7 | 1.7 | 126.15 | 0.00 | 0.01 | 92 | 1007.5 |
| 20260507062015 | 52 | 0 | 0.0 | 0.0 | 126.15 | 0.00 | 0.01 | 92 | 1007.5 |
| 20260507061516 | 52 | 0 | 0.0 | 0.0 | 126.15 | 0.00 | 0.01 | 91 | 1007.3 |
| 20260507061015 | 52 | 278 | 0.0 | 3.5 | 126.15 | 0.00 | 0.01 | 91 | 1007.3 |
| 20260507060515 | 53 | 252 | 0.0 | 2.6 | 126.15 | 0.00 | 0.01 | 91 | 1007.5 |
| 20260507060015 | 53 | 271 | 1.7 | 3.5 | 126.15 | 0.00 | 0.01 | 90 | 1007.4 |
| 20260507055515 | 53 | 300 | 1.7 | 1.7 | 126.15 | 0.00 | 0.01 | 91 | 1007.5 |
| 20260507055015 | 53 | 307 | 0.9 | 3.5 | 126.15 | 0.00 | 0.01 | 92 | 1007.4 |
| 20260507054516 | 53 | 287 | 1.7 | 5.2 | 126.15 | 0.00 | 0.01 | 91 | 1007.5 |
| 20260507054015 | 53 | 0 | 2.6 | 0.0 | 126.15 | 0.00 | 0.01 | 92 | 1007.9 |
| 20260507053515 | 53 | 290 | 0.0 | 2.6 | 126.15 | 0.00 | 0.01 | 92 | 1007.9 |
| 20260507053016 | 53 | 287 | 0.9 | 3.5 | 126.15 | 0.00 | 0.01 | 91 | 1008.0 |
| 20260507052515 | 53 | 301 | 0.0 | 4.3 | 126.15 | 0.00 | 0.01 | 91 | 1007.9 |
| 20260507052015 | 54 | 287 | 0.0 | 3.5 | 126.15 | 0.00 | 0.01 | 91 | 1008.0 |
| 20260507051516 | 54 | 314 | 0.0 | 0.9 | 126.15 | 0.00 | 0.01 | 92 | 1007.7 |
| 20260507051015 | 54 | 307 | 0.9 | 2.6 | 126.15 | 0.00 | 0.01 | 92 | 1007.7 |
| 20260507050515 | 54 | 300 | 1.7 | 4.3 | 126.15 | 0.00 | 0.01 | 92 | 1008.0 |
| 20260507050015 | 54 | 0 | 0.0 | 0.0 | 126.15 | 0.00 | 0.01 | 93 | 1008.0 |
| 20260507045515 | 54 | 0 | 0.0 | 0.0 | 126.15 | 0.00 | 0.01 | 92 | 1008.0 |
| 20260507045015 | 54 | 301 | 0.0 | 1.7 | 126.15 | 0.00 | 0.01 | 92 | 1007.9 |
| 20260507044515 | 55 | 338 | 0.0 | 1.7 | 126.15 | 0.00 | 0.01 | 92 | 1007.6 |
| 20260507044015 | 55 | 345 | 0.0 | 4.3 | 126.15 | 0.00 | 0.01 | 92 | 1007.4 |
| 20260507043515 | 55 | 293 | 1.7 | 4.3 | 126.15 | 0.00 | 0.01 | 92 | 1007.5 |
| 20260507043016 | 55 | 278 | 2.6 | 3.5 | 126.15 | 0.00 | 0.01 | 93 | 1007.7 |
| 20260507042515 | 55 | 291 | 0.9 | 4.3 | 126.15 | 0.00 | 0.01 | 92 | 1007.7 |
| 20260507042015 | 55 | 294 | 0.9 | 5.2 | 126.15 | 0.00 | 0.01 | 93 | 1007.6 |
| 20260507041518 | 56 | 295 | 2.6 | 3.5 | 126.15 | 0.00 | 0.01 | 93 | 1007.6 |
| 20260507041015 | 56 | 309 | 0.0 | 3.5 | 126.14 | 0.00 | 0.00 | 92 | 1007.7 |
| 20260507040515 | 56 | 0 | 0.0 | 0.0 | 126.14 | 0.00 | 0.00 | 92 | 1007.6 |
| 20260507040015 | 56 | 339 | 0.0 | 0.0 | 126.14 | 0.00 | 0.00 | 92 | 1007.7 |
| 20260507035515 | 56 | 281 | 0.0 | 4.3 | 126.14 | 0.00 | 0.24 | 91 | 1007.6 |
| 20260507035015 | 57 | 277 | 0.0 | 7.0 | 126.14 | 0.00 | 0.24 | 91 | 1007.6 |
| 20260507034515 | 57 | 305 | 4.3 | 7.0 | 126.14 | 0.00 | 0.24 | 91 | 1007.7 |
| 20260507034015 | 57 | 305 | 0.9 | 7.8 | 126.13 | 0.00 | 0.23 | 91 | 1007.5 |
| 20260507033016 | 58 | 255 | 0.0 | 1.7 | 126.13 | 0.00 | 0.23 | 95 | 1007.3 |
| 20260507032515 | 58 | 280 | 0.0 | 5.2 | 126.13 | 0.00 | 0.23 | 95 | 1007.0 |
| 20260507032015 | 58 | 235 | 0.0 | 2.6 | 126.13 | 0.00 | 0.23 | 95 | 1007.0 |
| 20260507031515 | 58 | 276 | 0.9 | 6.1 | 126.13 | 0.00 | 0.23 | 95 | 1006.9 |
| 20260507031015 | 58 | 259 | 3.5 | 7.0 | 126.13 | 0.00 | 0.23 | 95 | 1006.8 |
| 20260507030515 | 58 | 266 | 2.6 | 7.8 | 126.13 | 0.00 | 0.23 | 95 | 1006.8 |
| 20260507030015 | 58 | 263 | 4.3 | 7.0 | 126.13 | 0.00 | 0.23 | 96 | 1006.5 |
| 20260507025515 | 59 | 300 | 3.5 | 9.6 | 126.13 | 0.00 | 0.23 | 96 | 1006.5 |
| 20260507025015 | 59 | 316 | 6.1 | 8.7 | 126.13 | 0.00 | 0.23 | 97 | 1006.6 |
| 20260507024515 | 59 | 290 | 0.9 | 8.7 | 126.13 | 0.00 | 0.23 | 98 | 1006.7 |
| 20260507024015 | 59 | 285 | 3.5 | 6.1 | 126.13 | 0.00 | 0.23 | 98 | 1006.6 |
| 20260507023517 | 59 | 280 | 3.5 | 5.2 | 126.13 | 0.00 | 0.23 | 98 | 1006.6 |
| 20260507023022 | 59 | 293 | 3.5 | 5.2 | 126.13 | 0.00 | 0.23 | 98 | 1006.6 |
| 20260507022515 | 59 | 263 | 1.7 | 5.2 | 126.13 | 0.00 | 0.23 | 98 | 1006.5 |
| 20260507022014 | 59 | 269 | 1.7 | 4.3 | 126.13 | 0.00 | 0.23 | 98 | 1006.5 |
| 20260507021515 | 59 | 260 | 2.6 | 3.5 | 126.13 | 0.00 | 0.23 | 98 | 1006.6 |
| 20260507021015 | 59 | 270 | 2.6 | 2.6 | 126.13 | 0.00 | 0.23 | 98 | 1006.4 |
| 20260507020515 | 59 | 304 | 1.7 | 3.5 | 126.13 | 0.00 | 0.23 | 97 | 1006.3 |
| 20260507020015 | 59 | 256 | 0.9 | 1.7 | 126.13 | 0.00 | 0.23 | 97 | 1006.2 |
| 20260507015515 | 59 | 288 | 0.0 | 2.6 | 126.13 | 0.00 | 0.23 | 97 | 1006.2 |
| 20260507015014 | 59 | 198 | 0.9 | 3.5 | 126.13 | 0.00 | 0.23 | 97 | 1006.3 |
| 20260507014515 | 59 | 240 | 0.0 | 2.6 | 126.13 | 0.00 | 0.23 | 97 | 1006.3 |
| 20260507014014 | 59 | 263 | 0.0 | 2.6 | 126.13 | 0.00 | 0.23 | 97 | 1006.3 |
| 20260507013515 | 59 | 229 | 0.9 | 1.7 | 126.13 | 0.00 | 0.23 | 97 | 1006.3 |
| 20260507013015 | 59 | 300 | 0.0 | 0.9 | 126.13 | 0.00 | 0.23 | 97 | 1006.4 |
| 20260507012514 | 59 | 211 | 0.0 | 3.5 | 126.13 | 0.00 | 0.23 | 97 | 1006.3 |
| 20260507012014 | 59 | 201 | 0.0 | 5.2 | 126.13 | 0.00 | 0.23 | 97 | 1006.3 |
| 20260507011515 | 59 | 204 | 1.7 | 5.2 | 126.13 | 0.00 | 0.23 | 97 | 1006.4 |
| 20260507011014 | 59 | 210 | 2.6 | 4.3 | 126.13 | 0.00 | 0.23 | 97 | 1006.3 |
| 20260507010516 | 59 | 205 | 0.0 | 5.2 | 126.13 | 0.00 | 0.23 | 97 | 1006.2 |
| 20260507010015 | 59 | 198 | 0.0 | 7.0 | 126.13 | 0.00 | 0.23 | 97 | 1006.3 |
| 20260507005514 | 59 | 191 | 0.9 | 7.0 | 126.13 | 0.00 | 0.23 | 97 | 1006.3 |
| 20260507005015 | 59 | 186 | 3.5 | 7.0 | 126.13 | 0.00 | 0.23 | 97 | 1006.3 |
| 20260507004515 | 59 | 159 | 0.9 | 8.7 | 126.13 | 0.00 | 0.23 | 97 | 1006.4 |
| 20260507004014 | 59 | 236 | 1.7 | 9.6 | 126.13 | 0.00 | 0.23 | 97 | 1006.2 |
| 20260507003514 | 59 | 193 | 6.1 | 9.6 | 126.13 | 0.00 | 0.23 | 97 | 1006.2 |
| 20260507003015 | 59 | 194 | 3.5 | 4.3 | 126.13 | 0.00 | 0.23 | 97 | 1006.2 |
| 20260507002515 | 59 | 195 | 1.7 | 9.6 | 126.13 | 0.00 | 0.23 | 97 | 1006.2 |
| 20260507002014 | 59 | 197 | 1.7 | 9.6 | 126.12 | 0.00 | 0.22 | 97 | 1006.1 |
| 20260507001515 | 59 | 186 | 5.2 | 8.7 | 126.12 | 0.00 | 0.22 | 97 | 1006.1 |
| 20260507001015 | 59 | 204 | 1.7 | 9.6 | 126.12 | 0.00 | 0.22 | 97 | 1006.0 |
| 20260507000516 | 59 | 195 | 0.9 | 7.0 | 126.12 | 0.00 | 0.22 | 97 | 1006.1 |
| 20260507000015 | 59 | 187 | 2.6 | 6.1 | 126.12 | 0.00 | 0.22 | 97 | 1006.2 |
| 20260506235514 | 59 | 205 | 0.9 | 8.7 | 126.12 | 0.00 | 0.22 | 97 | 1006.1 |
| 20260506235015 | 59 | 159 | 4.3 | 6.1 | 126.12 | 0.00 | 0.22 | 97 | 1006.1 |
| 20260506234515 | 59 | 167 | 2.6 | 8.7 | 126.12 | 0.00 | 0.22 | 97 | 1006.0 |
| 20260506234014 | 59 | 173 | 4.3 | 7.0 | 126.12 | 0.00 | 0.22 | 97 | 1006.0 |
| 20260506233516 | 59 | 226 | 2.6 | 7.0 | 126.12 | 0.00 | 0.22 | 97 | 1005.9 |
| 20260506233016 | 59 | 190 | 2.6 | 5.2 | 126.12 | 0.00 | 0.22 | 97 | 1005.9 |
| 20260506232514 | 59 | 173 | 0.9 | 12.2 | 126.12 | 0.00 | 0.22 | 97 | 1005.9 |
| 20260506232015 | 59 | 186 | 1.7 | 7.0 | 126.12 | 0.00 | 0.22 | 97 | 1005.9 |
| 20260506231515 | 59 | 180 | 2.6 | 6.1 | 126.12 | 0.00 | 0.22 | 97 | 1005.9 |
| 20260506231016 | 59 | 176 | 2.6 | 9.6 | 126.12 | 0.00 | 0.22 | 97 | 1006.0 |
| 20260506230015 | 59 | 246 | 4.3 | 8.7 | 126.12 | 0.00 | 0.22 | 97 | 1006.1 |
| 20260506225514 | 59 | 179 | 1.7 | 7.0 | 126.12 | 0.00 | 0.22 | 97 | 1006.0 |
| 20260506224515 | 60 | 200 | 1.7 | 8.7 | 126.10 | 0.00 | 0.20 | 97 | 1006.1 |
| 20260506224014 | 59 | 191 | 4.3 | 6.1 | 126.09 | 0.00 | 0.19 | 97 | 1006.1 |
| 20260506223515 | 60 | 172 | 1.7 | 7.8 | 126.09 | 0.00 | 0.19 | 97 | 1006.2 |
| 20260506223015 | 60 | 255 | 4.3 | 8.7 | 126.08 | 0.00 | 0.18 | 96 | 1006.1 |
| 20260506222514 | 60 | 158 | 4.3 | 9.6 | 126.08 | 0.00 | 0.18 | 96 | 1006.0 |
| 20260506222014 | 60 | 229 | 4.3 | 8.7 | 126.07 | 0.00 | 0.17 | 96 | 1006.2 |
| 20260506221515 | 60 | 233 | 5.2 | 9.6 | 126.06 | 0.00 | 0.16 | 96 | 1006.3 |
| 20260506221014 | 60 | 200 | 7.0 | 8.7 | 126.06 | 0.00 | 0.16 | 96 | 1006.4 |
| 20260506220514 | 60 | 187 | 5.2 | 7.8 | 126.06 | 0.00 | 0.16 | 96 | 1006.4 |
| 20260506220015 | 60 | 190 | 4.3 | 8.7 | 126.05 | 0.00 | 0.15 | 96 | 1006.4 |
| 20260506215514 | 60 | 201 | 5.2 | 7.0 | 126.04 | 0.00 | 0.14 | 96 | 1006.4 |
| 20260506215014 | 60 | 174 | 2.6 | 7.0 | 126.04 | 0.00 | 0.14 | 96 | 1006.4 |
| 20260506214516 | 60 | 177 | 4.3 | 9.6 | 126.04 | 0.00 | 0.14 | 95 | 1006.4 |
| 20260506214014 | 60 | 195 | 4.3 | 9.6 | 126.03 | 0.00 | 0.13 | 95 | 1006.5 |
| 20260506213514 | 60 | 181 | 5.2 | 9.6 | 126.03 | 0.00 | 0.13 | 95 | 1006.4 |
| 20260506213015 | 60 | 194 | 7.0 | 13.0 | 126.02 | 0.00 | 0.12 | 95 | 1006.4 |
| 20260506212514 | 60 | 176 | 6.1 | 12.2 | 126.02 | 0.00 | 0.12 | 95 | 1006.5 |
| 20260506212014 | 60 | 228 | 2.6 | 11.3 | 126.02 | 0.00 | 0.12 | 95 | 1006.5 |
| 20260506211515 | 60 | 160 | 5.2 | 10.4 | 126.02 | 0.00 | 0.12 | 95 | 1006.5 |
| 20260506211015 | 60 | 149 | 5.2 | 8.7 | 126.02 | 0.00 | 0.12 | 95 | 1006.6 |
| 20260506210515 | 60 | 180 | 5.2 | 11.3 | 126.02 | 0.00 | 0.12 | 95 | 1006.8 |
| 20260506210015 | 61 | 165 | 6.1 | 12.2 | 126.02 | 0.00 | 0.12 | 95 | 1006.7 |
| 20260506205514 | 61 | 172 | 4.3 | 9.6 | 126.02 | 0.00 | 0.12 | 95 | 1006.8 |
| 20260506204515 | 61 | 180 | 4.3 | 11.3 | 126.01 | 0.00 | 0.11 | 94 | 1006.9 |
| 20260506203514 | 61 | 191 | 6.1 | 8.7 | 126.01 | 0.00 | 0.11 | 94 | 1007.0 |
| 20260506203015 | 61 | 210 | 2.6 | 7.8 | 126.00 | 0.00 | 0.10 | 93 | 1007.1 |
| 20260506202517 | 61 | 181 | 3.5 | 8.7 | 126.00 | 0.00 | 0.10 | 93 | 1007.0 |
| 20260506202015 | 61 | 195 | 2.6 | 10.4 | 125.99 | 0.00 | 0.09 | 92 | 1007.0 |
| 20260506201517 | 62 | 187 | 3.5 | 12.2 | 125.99 | 0.00 | 0.09 | 92 | 1007.1 |
| 20260506201014 | 62 | 212 | 3.5 | 13.0 | 125.98 | 0.00 | 0.08 | 91 | 1006.9 |
| 20260506200516 | 62 | 217 | 4.3 | 9.6 | 125.98 | 0.00 | 0.08 | 91 | 1007.0 |
| 20260506200015 | 62 | 174 | 6.1 | 11.3 | 125.98 | 0.00 | 0.08 | 90 | 1007.1 |
| 20260506195514 | 62 | 203 | 0.9 | 10.4 | 125.97 | 0.00 | 0.07 | 90 | 1007.1 |
| 20260506195014 | 62 | 224 | 6.1 | 7.8 | 125.97 | 0.00 | 0.07 | 90 | 1007.3 |
| 20260506194515 | 62 | 188 | 3.5 | 11.3 | 125.97 | 0.00 | 0.07 | 90 | 1007.1 |
| 20260506193514 | 63 | 215 | 3.5 | 7.0 | 125.97 | 0.00 | 0.07 | 90 | 1007.2 |
| 20260506193016 | 63 | 219 | 2.6 | 7.8 | 125.97 | 0.00 | 0.07 | 90 | 1007.1 |
| 20260506192515 | 63 | 208 | 2.6 | 13.0 | 125.97 | 0.00 | 0.07 | 90 | 1007.1 |
| 20260506191517 | 63 | 210 | 1.7 | 7.0 | 125.97 | 0.00 | 0.07 | 91 | 1007.1 |
| 20260506191015 | 63 | 193 | 2.6 | 8.7 | 125.96 | 0.00 | 0.06 | 91 | 1007.1 |
| 20260506190014 | 63 | 195 | 3.5 | 4.3 | 125.96 | 0.00 | 0.06 | 90 | 1007.0 |
| 20260506185514 | 63 | 270 | 1.7 | 0.9 | 125.96 | 0.00 | 0.06 | 90 | 1007.1 |
| 20260506185014 | 63 | 225 | 0.9 | 5.2 | 125.95 | 0.00 | 0.05 | 88 | 1007.2 |
| 20260506184514 | 63 | 228 | 1.7 | 6.1 | 125.95 | 0.00 | 0.05 | 88 | 1007.2 |
| 20260506184014 | 63 | 291 | 1.7 | 8.7 | 125.94 | 0.00 | 0.04 | 87 | 1007.3 |
| 20260506183515 | 64 | 274 | 5.2 | 7.0 | 125.94 | 0.00 | 0.04 | 86 | 1007.5 |
| 20260506183015 | 64 | 288 | 2.6 | 7.0 | 125.93 | 0.00 | 0.03 | 84 | 1007.4 |
| 20260506182514 | 65 | 302 | 3.5 | 8.7 | 125.93 | 0.00 | 0.03 | 82 | 1007.5 |
| 20260506182014 | 65 | 276 | 2.6 | 5.2 | 125.92 | 0.00 | 0.02 | 81 | 1007.7 |
| 20260506181514 | 66 | 297 | 2.6 | 7.8 | 125.92 | 0.00 | 0.02 | 77 | 1007.7 |
| 20260506181014 | 67 | 277 | 2.6 | 7.0 | 125.91 | 0.00 | 0.01 | 72 | 1007.7 |
| 20260506180514 | 68 | 294 | 4.3 | 9.6 | 125.90 | 0.00 | 0.00 | 67 | 1007.7 |
| 20260506180015 | 69 | 290 | 2.6 | 13.0 | 125.90 | 0.00 | 0.00 | 65 | 1007.5 |
| 20260506175514 | 69 | 214 | 5.2 | 7.8 | 125.90 | 0.00 | 0.00 | 62 | 1007.6 |
| 20260506175014 | 69 | 176 | 3.5 | 11.3 | 125.90 | 0.00 | 0.00 | 60 | 1007.5 |
| 20260506174515 | 70 | 190 | 5.2 | 13.0 | 125.90 | 0.00 | 0.00 | 61 | 1007.5 |
| 20260506174014 | 70 | 267 | 2.6 | 6.1 | 125.90 | 0.00 | 0.00 | 58 | 1007.5 |
| 20260506173514 | 70 | 260 | 3.5 | 9.6 | 125.90 | 0.00 | 0.00 | 57 | 1007.4 |
| 20260506173014 | 71 | 136 | 4.3 | 9.6 | 125.90 | 0.00 | 0.00 | 56 | 1007.4 |
| 20260506172514 | 71 | 246 | 4.3 | 13.9 | 125.90 | 0.00 | 0.00 | 55 | 1007.4 |
| 20260506172014 | 72 | 173 | 4.3 | 14.8 | 125.90 | 0.00 | 0.00 | 53 | 1007.4 |
| 20260506171514 | 72 | 156 | 5.2 | 29.5 | 125.90 | 0.00 | 0.00 | 52 | 1007.5 |
| 20260506171014 | 72 | 183 | 9.6 | 36.5 | 125.90 | 0.00 | 0.00 | 51 | 1007.3 |
| 20260506170514 | 73 | 229 | 7.0 | 16.5 | 125.90 | 0.00 | 0.00 | 50 | 1007.4 |
| 20260506170015 | 73 | 166 | 8.7 | 16.5 | 125.90 | 0.00 | 0.00 | 51 | 1007.3 |
| 20260506165514 | 73 | 146 | 6.1 | 14.8 | 125.90 | 0.00 | 0.00 | 51 | 1007.4 |
| 20260506165014 | 72 | 203 | 1.7 | 15.6 | 125.90 | 0.00 | 0.00 | 53 | 1007.6 |
| 20260506164517 | 72 | 169 | 3.5 | 20.0 | 125.90 | 0.00 | 0.00 | 57 | 1007.6 |
| 20260506164014 | 71 | 146 | 2.6 | 13.0 | 125.90 | 0.00 | 0.00 | 55 | 1007.8 |
| 20260506163514 | 71 | 212 | 5.2 | 15.6 | 125.90 | 0.00 | 0.00 | 55 | 1007.9 |
| 20260506163014 | 71 | 200 | 6.1 | 8.7 | 125.90 | 0.00 | 0.00 | 57 | 1007.9 |
| 20260506162514 | 71 | 194 | 3.5 | 13.9 | 125.90 | 0.00 | 0.00 | 57 | 1008.0 |
| 20260506162015 | 70 | 221 | 4.3 | 15.6 | 125.90 | 0.00 | 0.00 | 57 | 1008.1 |
| 20260506161514 | 70 | 215 | 2.6 | 10.4 | 125.90 | 0.00 | 0.00 | 58 | 1008.1 |
| 20260506161014 | 70 | 204 | 6.1 | 12.2 | 125.90 | 0.00 | 0.00 | 57 | 1008.3 |
| 20260506160514 | 70 | 180 | 4.3 | 13.0 | 125.90 | 0.00 | 0.00 | 57 | 1008.3 |
| 20260506160014 | 70 | 180 | 5.2 | 13.0 | 125.90 | 0.00 | 0.00 | 59 | 1008.4 |
| 20260506155514 | 70 | 190 | 7.0 | 10.4 | 125.90 | 0.00 | 0.00 | 59 | 1008.5 |
| 20260506155013 | 70 | 169 | 4.3 | 6.1 | 125.90 | 0.00 | 0.00 | 61 | 1008.6 |
| 20260506154515 | 70 | 201 | 4.3 | 12.2 | 125.90 | 0.00 | 0.00 | 61 | 1008.7 |
| 20260506154013 | 69 | 170 | 7.0 | 11.3 | 125.90 | 0.00 | 0.00 | 60 | 1008.8 |
| 20260506153513 | 69 | 200 | 2.6 | 13.0 | 125.90 | 0.00 | 0.00 | 62 | 1008.8 |
| 20260506153014 | 69 | 235 | 4.3 | 7.8 | 125.90 | 0.00 | 0.00 | 62 | 1008.9 |
| 20260506152514 | 69 | 172 | 3.5 | 8.7 | 125.90 | 0.00 | 0.00 | 62 | 1009.0 |
| 20260506152015 | 69 | 186 | 5.2 | 12.2 | 125.90 | 0.00 | 0.00 | 61 | 1009.1 |
| 20260506151514 | 69 | 145 | 5.2 | 13.0 | 125.90 | 0.00 | 0.00 | 62 | 1009.2 |
| 20260506151014 | 69 | 188 | 7.0 | 12.2 | 125.90 | 0.00 | 0.00 | 62 | 1009.2 |
| 20260506150513 | 69 | 184 | 6.1 | 14.8 | 125.90 | 0.00 | 0.00 | 61 | 1009.3 |
| 20260506150014 | 69 | 187 | 1.7 | 13.9 | 125.90 | 0.00 | 0.00 | 62 | 1009.4 |
| 20260506145513 | 68 | 212 | 7.8 | 16.5 | 125.90 | 0.00 | 0.00 | 63 | 1009.2 |
| 20260506145013 | 68 | 200 | 4.3 | 7.0 | 125.90 | 0.00 | 0.00 | 64 | 1009.2 |
| 20260506144515 | 68 | 193 | 5.2 | 15.6 | 125.90 | 0.00 | 0.00 | 64 | 1009.5 |
| 20260506144013 | 68 | 198 | 7.8 | 17.4 | 125.90 | 0.00 | 0.00 | 64 | 1009.5 |
| 20260506143016 | 68 | 173 | 5.2 | 14.8 | 125.90 | 0.00 | 0.00 | 64 | 1009.4 |
| 20260506141516 | 67 | 166 | 4.3 | 19.1 | 125.90 | 0.00 | 0.00 | 66 | 1009.2 |
| 20260506140514 | 68 | 204 | 5.2 | 10.4 | 125.90 | 0.00 | 0.00 | 65 | 1009.1 |
| 20260506140015 | 68 | 165 | 7.0 | 16.5 | 125.90 | 0.00 | 0.00 | 64 | 1008.9 |
| 20260506135513 | 67 | 180 | 6.1 | 13.9 | 125.90 | 0.00 | 0.00 | 66 | 1009.0 |